Temp
54 53 51 50 49 49 48 47 46 45 44 44 43 42 41 41 40 41 41 41 40 37 38 37 37 36 36 37 37 39 39 39
54 53 51 49 48 48 47 46 44 44 43 41 40 38 39 39 40 41 40 39 39 39 37 37 37 35 37 39 39 38 38 39
53 52 50 49 48 47 46 45 44 43 43 41 40 39 39 39 38 39 39 39 38 39 36 36 36 37 37 37 37 36 37 38
52 51 48 46 46 46 46 44 44 43 43 42 40 39 38 38 37 38 38 38 38 37 37 35 35 37 36 37 37 35 34 37
53 49 45 45 45 44 44 45 44 44 42 39 37 35 34 35 35 35 36 37 36 37 36 35 37 37 35 36 38 36 36 33
48 49 47 46 44 43 42 43 43 42 41 39 36 35 34 35 34 35 34 35 36 36 36 35 37 35 35 36 36 35 35 34
51 50 49 45 42 42 41 42 41 41 40 39 37 35 35 34 33 33 33 34 35 35 36 35 35 34 34 35 36 36 35 34
48 47 46 44 43 41 42 41 40 40 39 38 37 36 35 33 32 32 31 33 33 33 34 34 33 34 34 35 35 35 34 33
48 46 45 44 44 42 41 41 41 40 39 38 37 37 35 34 34 33 31 31 32 33 33 34 34 34 34 35 35 34 34 34
46 45 44 43 42 41 40 41 41 40 39 37 37 36 36 35 34 34 32 32 36 33 33 33 34 35 35 35 34 33 34 33
45 44 43 43 42 41 41 41 40 39 38 37 37 36 37 36 35 34 32 32 32 32 32 33 35 35 35 35 34 34 33 32
44 44 44 43 41 41 40 40 39 38 38 37 36 36 37 36 35 34 33 33 32 33 32 32 34 34 35 34 35 34 32 31
45 44 43 42 42 41 40 39 39 38 38 38 37 37 36 35 35 35 34 33 33 33 31 31 32 34 35 34 34 33 30 30
44 44 43 43 42 42 40 39 39 39 39 37 36 36 35 34 34 35 35 34 32 31 30 30 30 32 34 36 34 33 31 30
45 43 43 43 43 42 41 39 39 39 39 37 35 35 35 34 35 35 34 34 32 30 30 30 31 32 35 35 34 32 31 30
46 43 42 42 41 41 42 40 40 40 39 37 35 36 36 36 35 34 34 33 32 31 30 30 31 33 35 33 32 31 31 31
48 47 45 44 44 42 43 40 39 40 38 37 38 37 37 35 35 34 33 32 30 30 29 29 30 33 36 35 33 30 30 30
48 47 47 45 44 43 40 39 40 39 38 39 39 38 36 35 35 34 31 30 29 28 28 28 29 32 36 35 34 30 29 29
50 48 45 44 42 41 41 41 39 39 38 38 38 37 36 35 34 33 31 30 28 28 28 28 28 32 35 35 33 30 29 30
MSLP
1022.86 1023.10 1023.58 1023.90 1024.11 1024.52 1024.92 1025.23 1025.58 1025.47 1025.68 1025.71 1025.77 1025.64 1025.50 1025.28 1025.00 1024.74 1024.30 1024.11 1023.86 1023.69 1023.00 1022.48 1021.75 1021.05 1020.30 1019.59 1018.75 1017.78 1016.93 1015.90
1022.74 1023.22 1023.69 1024.13 1024.31 1024.66 1024.91 1025.29 1025.43 1025.60 1025.78 1026.23 1026.38 1026.29 1025.74 1025.32 1025.23 1024.91 1024.67 1024.46 1024.18 1023.71 1023.19 1022.52 1021.80 1021.18 1020.43 1019.48 1018.54 1017.53 1016.53 1015.77
1022.90 1023.33 1023.75 1024.02 1024.63 1024.87 1025.14 1025.31 1025.59 1025.90 1026.07 1026.61 1026.62 1026.28 1025.78 1025.51 1025.49 1025.26 1024.97 1024.69 1024.36 1023.78 1023.32 1022.68 1022.03 1021.29 1020.25 1019.48 1018.58 1017.56 1016.67 1015.91
1022.80 1023.52 1024.04 1024.33 1024.79 1025.04 1025.26 1025.52 1025.87 1026.14 1026.45 1026.66 1026.64 1026.25 1025.89 1025.77 1025.67 1025.63 1025.31 1025.06 1024.65 1024.01 1023.43 1022.87 1022.21 1021.17 1020.43 1019.65 1018.68 1017.84 1016.72 1015.98
1022.58 1023.53 1024.27 1024.63 1024.97 1025.02 1025.38 1025.67 1026.14 1026.56 1026.72 1026.99 1026.94 1026.82 1026.63 1026.46 1026.39 1026.24 1025.80 1025.30 1024.80 1024.08 1023.55 1023.00 1022.16 1021.36 1020.63 1019.90 1018.90 1018.08 1017.33 1016.31
1022.55 1023.37 1024.08 1024.69 1025.14 1025.37 1025.66 1026.07 1026.62 1026.78 1027.14 1027.24 1027.17 1027.10 1026.94 1026.76 1026.69 1026.43 1026.14 1025.55 1024.88 1024.24 1023.68 1023.16 1022.17 1021.59 1020.85 1020.03 1019.06 1018.33 1017.58 1016.79
1022.51 1023.41 1024.22 1025.04 1025.37 1025.68 1025.99 1026.45 1026.96 1027.06 1027.40 1027.47 1027.37 1027.31 1027.16 1027.14 1026.99 1026.84 1026.48 1025.93 1025.20 1024.52 1023.87 1023.31 1022.47 1021.74 1021.02 1020.22 1019.35 1018.55 1017.75 1017.06
1022.75 1023.68 1024.60 1025.17 1025.59 1026.05 1026.46 1026.78 1027.14 1027.48 1027.77 1027.72 1027.57 1027.43 1027.31 1027.37 1027.30 1027.22 1026.91 1026.28 1025.55 1024.80 1024.12 1023.39 1022.73 1021.98 1021.19 1020.38 1019.54 1018.72 1017.95 1017.11
1022.95 1023.84 1024.65 1025.29 1025.71 1026.25 1026.65 1027.00 1027.38 1027.96 1028.10 1028.01 1027.81 1027.63 1027.50 1027.48 1027.43 1027.32 1027.14 1026.59 1025.88 1025.08 1024.42 1023.56 1022.85 1022.13 1021.35 1020.49 1019.75 1019.11 1018.25 1017.34
1023.10 1024.22 1024.93 1025.38 1025.89 1026.46 1026.82 1027.08 1027.84 1028.17 1028.37 1028.26 1028.06 1027.84 1027.70 1027.66 1027.57 1027.38 1027.23 1026.70 1025.87 1025.34 1024.78 1023.86 1023.04 1022.30 1021.53 1020.78 1020.06 1019.39 1018.56 1017.69
1023.68 1024.49 1024.98 1025.63 1026.17 1026.53 1026.81 1027.42 1028.07 1028.47 1028.61 1028.47 1028.30 1028.07 1027.96 1027.77 1027.63 1027.52 1027.24 1026.80 1026.31 1025.73 1025.03 1024.24 1023.33 1022.61 1021.88 1021.12 1020.41 1019.81 1019.08 1018.15
1023.75 1024.55 1025.27 1025.74 1026.25 1026.49 1027.36 1027.89 1028.39 1028.76 1028.85 1028.64 1028.51 1028.33 1028.23 1028.01 1027.86 1027.62 1027.28 1026.98 1026.63 1026.09 1025.47 1024.77 1023.92 1023.10 1022.26 1021.55 1020.85 1020.30 1019.51 1018.65
1023.69 1024.50 1025.21 1025.99 1026.33 1026.97 1027.68 1028.26 1028.65 1028.93 1028.96 1028.84 1028.70 1028.62 1028.50 1028.37 1028.18 1027.86 1027.62 1027.36 1026.95 1026.59 1026.03 1025.35 1024.55 1023.62 1022.80 1022.13 1021.40 1020.86 1020.15 1019.16
1023.83 1024.62 1025.37 1026.03 1026.64 1027.23 1027.94 1028.46 1028.87 1029.04 1029.02 1028.98 1028.90 1028.89 1028.82 1028.78 1028.54 1028.23 1027.97 1027.72 1027.53 1027.19 1026.58 1025.90 1025.11 1024.16 1023.27 1022.65 1022.17 1021.52 1020.74 1019.89
1023.70 1024.63 1025.33 1026.08 1026.82 1027.38 1028.06 1028.68 1028.91 1029.08 1029.17 1029.09 1029.18 1029.18 1029.21 1029.10 1028.87 1028.62 1028.39 1028.12 1028.03 1027.75 1027.15 1026.56 1025.74 1024.74 1023.74 1023.16 1022.73 1022.16 1021.35 1020.49
1023.50 1024.46 1025.31 1026.23 1026.98 1027.58 1028.17 1028.69 1028.98 1029.13 1029.31 1029.29 1029.42 1029.45 1029.46 1029.36 1029.18 1029.03 1028.86 1028.73 1028.56 1028.38 1027.79 1027.08 1026.30 1025.30 1024.50 1023.83 1023.42 1022.92 1022.09 1021.17
1023.13 1024.11 1025.19 1026.18 1026.91 1027.56 1028.13 1028.76 1029.07 1029.28 1029.45 1029.53 1029.58 1029.70 1029.77 1029.68 1029.54 1029.50 1029.46 1029.35 1029.18 1028.97 1028.43 1027.82 1027.05 1026.19 1025.41 1024.69 1024.19 1023.75 1023.00 1021.99
1022.59 1023.74 1024.93 1025.87 1026.65 1027.27 1028.13 1028.76 1029.10 1029.46 1029.60 1029.70 1029.90 1030.04 1030.09 1030.08 1030.03 1029.94 1029.94 1029.87 1029.69 1029.43 1029.11 1028.51 1027.86 1027.11 1026.23 1025.64 1024.97 1024.64 1024.07 1023.32
1022.28 1023.53 1024.76 1025.61 1026.43 1027.40 1028.09 1028.67 1029.20 1029.62 1029.85 1030.02 1030.25 1030.39 1030.49 1030.59 1030.50 1030.46 1030.52 1030.50 1030.37 1030.18 1029.92 1029.43 1028.76 1027.89 1027.08 1026.48 1025.86 1025.40 1025.01 1024.47
Wind_Speed
11 11 8 8 8 8 8 6 5 6 5 5 5 5 4 3 4 4 8 7 7 6 8 8 8 8 9 11 13 12 11 10
7 10 9 9 8 8 7 7 4 4 4 4 3 3 3 3 4 6 7 7 7 10 8 9 9 9 13 14 11 12 10 10
7 8 6 6 7 7 7 7 7 5 4 2 0 2 2 2 2 5 6 8 7 11 9 9 10 10 11 12 13 9 8 9
10 8 8 8 7 7 8 7 7 6 7 3 3 3 2 4 4 6 6 7 6 11 10 9 10 10 9 12 12 11 9 9
9 11 6 8 6 7 8 8 8 7 6 5 4 2 3 3 2 3 5 6 7 10 9 10 12 9 11 10 11 10 10 10
12 12 9 6 6 8 7 9 7 7 7 5 4 5 3 3 3 6 6 6 8 10 10 10 12 8 10 13 13 11 8 7
14 9 10 7 7 8 8 9 7 8 7 6 6 7 5 5 4 5 5 5 7 10 10 9 10 9 11 11 12 12 10 9
14 13 10 7 9 8 8 8 8 8 7 6 6 6 7 6 4 4 5 6 7 9 10 9 9 10 11 12 11 12 11 10
15 12 10 8 9 8 8 8 9 7 6 5 5 6 4 4 3 3 3 4 5 8 9 9 10 11 11 12 8 9 11 11
14 11 9 8 8 8 9 9 7 6 5 5 6 6 6 5 4 3 2 4 6 9 8 10 11 12 13 13 9 10 11 12
12 10 9 6 8 8 9 8 8 6 5 4 5 6 6 5 5 2 3 5 6 8 8 9 11 12 13 12 11 11 12 10
12 9 7 8 7 9 8 8 8 6 4 5 6 6 6 6 5 4 3 5 6 9 9 9 11 12 13 12 13 14 14 14
12 11 10 8 9 8 7 7 7 5 4 5 5 6 6 6 6 6 6 6 6 8 9 9 10 12 12 12 14 15 15 14
10 9 9 9 9 8 7 7 6 5 5 5 5 5 6 6 6 6 6 6 7 7 10 11 11 12 12 12 13 13 15 14
11 8 9 9 8 8 8 7 6 5 5 5 5 5 5 5 5 6 6 6 6 7 10 11 11 12 13 11 13 13 14 14
12 11 10 10 9 7 8 7 6 5 5 6 5 5 5 6 6 6 6 6 6 7 10 11 12 13 12 15 13 13 15 15
13 13 12 12 11 9 9 7 6 5 5 6 5 6 5 6 6 6 6 6 6 7 10 11 13 11 23 24 18 13 14 15
15 15 13 13 12 10 9 7 6 6 6 6 6 5 5 6 6 6 6 6 6 7 9 11 12 14 24 23 22 11 12 14
14 13 12 12 9 9 9 7 7 6 6 6 5 5 6 6 6 6 7 5 6 7 10 11 10 12 23 24 20 12 12 14
Wind_Direction
157 145 140 131 125 118 113 105 83 75 66 41 30 14 346 19 57 37 31 13 358 347 340 333 333 331 332 334 333 326 324 313
161 142 135 123 108 115 120 111 72 74 55 42 16 332 326 31 59 34 26 9 359 349 345 339 337 339 338 338 330 319 328 330
163 130 132 111 129 118 120 104 84 70 68 51 25 303 310 36 66 25 20 10 2 349 342 337 340 339 330 332 328 328 321 333
162 135 137 128 128 125 125 105 89 74 77 55 349 326 349 19 22 18 4 356 343 351 343 339 341 337 338 334 329 331 330 336
141 136 138 139 143 106 112 103 90 83 75 63 47 29 24 8 37 354 347 338 338 348 343 343 349 343 338 334 332 337 338 337
139 150 144 142 126 114 102 91 88 81 74 72 55 38 28 29 22 13 342 334 336 341 346 342 351 342 338 342 335 343 336 331
138 132 129 123 107 103 97 96 87 82 74 55 55 54 36 44 22 11 349 329 337 342 344 339 349 343 342 341 341 335 339 333
137 139 137 122 110 109 105 100 85 78 75 51 48 49 53 65 47 12 353 345 348 340 336 340 347 341 342 344 341 342 340 335
145 139 130 123 109 107 105 99 86 86 73 50 45 45 50 56 58 31 360 329 321 327 335 340 350 345 345 347 344 345 339 338
134 129 130 121 113 115 116 98 94 89 79 59 45 42 44 38 44 24 344 323 343 342 338 348 353 351 353 352 349 349 347 345
131 132 130 124 117 118 96 100 104 98 80 61 54 42 37 27 36 18 1 330 343 341 347 342 355 354 352 354 355 357 355 351
136 139 138 125 120 103 108 103 106 94 84 70 57 40 31 28 13 15 344 340 349 357 354 341 353 353 353 354 3 7 358 355
145 147 132 126 113 109 109 107 108 114 103 78 60 46 32 29 11 12 23 359 2 2 354 349 353 351 356 3 8 9 359 356
142 132 134 128 116 115 112 115 122 124 94 85 60 41 36 27 23 24 29 19 19 6 2 358 350 348 359 11 13 9 3 360
146 130 133 130 128 122 115 115 129 122 99 87 71 43 44 34 31 36 36 25 27 15 6 1 355 354 12 14 11 9 7 5
152 146 137 132 125 117 113 120 127 120 105 87 76 60 54 40 33 38 39 32 31 25 10 9 8 15 18 19 13 10 9 9
155 147 138 136 133 135 127 128 125 116 106 95 80 67 53 38 33 41 44 35 26 29 19 13 18 18 22 23 21 13 11 11
158 153 145 141 146 138 132 134 124 114 105 94 81 71 53 39 35 39 51 43 32 23 21 15 16 21 23 23 17 15 18 15
151 144 136 143 135 123 128 126 122 117 100 95 86 74 57 44 42 40 45 36 32 30 28 18 12 18 22 23 15 15 22 26